Simultaneous Nadir Overpasses (SNOs) Predictions

Prediction of SNOs between LANDSAT-8 and METOP-B Satellite Orbit:

Table of predicted SNOs for the next 14.0 days since TLE Epoch: 1/2/2021
Index Date (LANDSAT-8) Time (LANDSAT-8) Lat,Lon (LANDSAT-8) SZA (LANDSAT-8 ) Date (METOP-B) Time (METOP-B) Lat,Lon (METOP-B) SZA (METOP-B ) Distance(km) Time Diff (sec)
1 01/02/2021 18:20:37 81.11, -55.53 105.75 01/02/2021 18:19:56 81.11, -55.48 105.74 0.97 41
2 01/02/2021 19:10:03 -81.13, 112.41 74.21 01/02/2021 19:10:35 -81.13, 112.41 74.20 0.47 32
3 01/05/2021 13:54:51 81.11, 10.94 105.43 01/05/2021 13:54:20 81.11, 10.95 105.42 0.40 31
4 01/05/2021 14:44:17 -81.13, 178.91 74.53 01/05/2021 14:44:59 -81.14, 178.88 74.52 0.51 42
5 01/08/2021 09:29:05 81.11, 77.37 105.04 01/08/2021 09:28:44 81.12, 77.35 105.04 0.58 21
6 01/08/2021 10:18:31 -81.13,-114.64 74.92 01/08/2021 10:19:23 -81.14,-114.67 74.90 0.60 52
7 01/11/2021 05:03:17 81.13, 144.12 104.65 01/11/2021 05:03:06 81.13, 144.12 104.64 0.41 11
8 01/11/2021 05:52:43 -81.15, -47.87 75.31 01/11/2021 05:53:45 -81.15, -47.86 75.29 0.49 62
9 01/13/2021 23:48:31 -80.41, 34.06 77.21 01/13/2021 23:47:17 -80.64, 33.25 77.08 29.93 74
10 01/14/2021 00:37:31 81.12,-149.53 104.14 01/14/2021 00:37:30 81.13,-149.52 104.14 0.20 1



Historial Predications of SNOs between LANDSAT-8 and METOP-B
